Location: Oshawa
(43.9000°N, 78.8670°W)
Time: 01:53:18
(UTC-04:00)

Explorer 7 - Visible Passes

Search period start: 26 October 2014 00:00
Search period end: 04 November 2014 23:00
Orbit: 491 x 705 km, 50.3° (Epoch: 25 October)

Date Brightness Start Highest point End Pass type
(mag) Time Alt. Az. Time Alt. Az. Time Alt. Az.
26 Oct 8.6 04:53:16 34° NE 04:53:16 34° NE 04:56:02 10° ENE visible
26 Oct 8.0 06:29:55 20° WNW 06:32:41 39° N 06:37:17 10° ENE visible
27 Oct 8.4 05:03:01 37° NE 05:03:01 37° NE 05:06:06 10° ENE visible
27 Oct 8.1 06:39:40 16° WNW 06:42:58 38° N 06:47:33 10° ENE visible
28 Oct 8.2 05:12:43 38° NNE 05:12:43 38° NNE 05:16:11 10° ENE visible
28 Oct 8.1 06:49:22 13° WNW 06:53:15 39° N 06:57:53 10° ENE visible
29 Oct 8.1 05:22:24 37° NNE 05:22:24 37° NNE 05:26:20 10° ENE visible
29 Oct 8.0 06:59:03 10° WNW 07:03:29 44° NNE 07:08:14 10° E visible
30 Oct 8.1 05:32:04 37° N 05:32:05 37° N 05:36:33 10° ENE visible
30 Oct 7.7 07:09:02 10° WNW 07:13:40 55° NNE 07:18:32 10° E visible
31 Oct 10.3 04:05:05 11° ENE 04:05:05 11° ENE 04:05:11 10° ENE visible
31 Oct 8.0 05:41:44 36° NNW 05:42:19 38° N 05:46:50 10° ENE visible
31 Oct 7.4 07:19:02 10° WNW 07:23:46 74° NNE 07:28:43 10° ESE visible
01 Nov 10.1 04:14:45 13° ENE 04:14:45 13° ENE 04:15:16 10° ENE visible
01 Nov 7.9 05:51:24 36° NNW 05:52:31 43° NNE 05:57:08 10° E visible
02 Nov 9.9 03:24:26 15° ENE 03:24:26 15° ENE 03:25:26 10° ENE visible
02 Nov 7.7 05:01:05 36° NW 05:02:40 52° NNE 05:07:25 10° E visible
03 Nov 9.6 03:34:09 19° ENE 03:34:09 19° ENE 03:35:40 10° ENE visible
03 Nov 7.3 05:10:48 35° NW 05:12:44 70° NNE 05:17:36 10° ESE visible
04 Nov 9.4 03:43:54 23° ENE 03:43:54 23° ENE 03:45:57 10° E visible
04 Nov 7.1 05:20:33 32° WNW 05:22:42 83° SSW 05:27:36 10° ESE visible
